Regional Weather Roundup
Issued by NWS

Home | Current Version | Previous Version | Text Only | Print | Product List | Glossary On
Versions: 1 2 3 4 5 6 7 8 9 10 11 12 13 14 15 16 17 18 19 20 21 22 23 24 25 26 27 28
000
ASUS42 KKEY 210410
RWRKEY

FLORIDA REGIONAL WEATHER ROUNDUP FOR THE FLORIDA KEYS
NATIONAL WEATHER SERVICE KEY WEST FLORIDA
1200 AM EDT SAT OCT 21 2017

...SOUTH FLORIDA AND THE KEYS...

CITY           SKY/WX    TMP DP  RH WIND       PRES   REMARKS
FORT MYERS     PTCLDY    72  72 100 NE7       30.06S
SW REGIONAL AP PTCLDY    74  73  97 NE9       30.07S
NAPLES           N/A    N/A N/A N/A MISG      30.05R
MIAMI          CLOUDY    82  74  76 NE9       30.04S
WEST KENDALL   PTCLDY    79  74  84 E9        30.03S
HOMESTEAD      PTCLDY    80  76  89 NE16      30.02F
MARATHON       PTCLDY    82  74  76 E14       30.00S
KEY WEST INTL  CLOUDY    82  75  79 E12       30.00S

...INTERNATIONAL WEATHER...

CITY           SKY/WX    TMP DP  RH WIND       PRES   REMARKS
NASSAU BAHAMAS PTCLDY    82  75  78 NE9       30.02S
CANCUN MEXICO  CLOUDY    77  77 100 NE2       29.93F
COZUMEL MEXICO MOCLDY    79  77  94 CALM      29.91F

ADJACENT COASTAL WATERS...

STATION/POSITION TIME  SKY/WX   TEMP    WIND        PRES    WAVE
                                AIR SEA DIR/SP/G            HT/PER
                 (UTC)          (F)     (DEG/KT/KT) (MB)    (FT/S)
PULASKI SHOAL LI 0400            83     100/ 23/ 24 1015.7S
SAND KEY         0350            83                 1016.4R
LONG KEY         NOT AVBL
MOLASSES REEF    0400            82 83   70/ 20/ 21 1016.1F
FOWEY ROCKS      0400            82 83   60/ 27/ 29 1017.2F
Buoy 42097       0330               83                N/A     7/ 6

$$




USA.gov is the U.S. government's official web portal to all federal, state and local government web resources and services.